Home   Weather   Milton Keynes   Past weeks
Flag for United Kingdom

Past Weather in Milton Keynes, England, United Kingdom — Yesterday and Last 2 Weeks

Now
54 °F

Cool.


Feels Like: 51 °F
Forecast: 67 / 49 °F
Wind: 9 mph from Northwest

Location: Luton Airport

Current Time: May 24, 2019 at 8:10:43 am

Latest Report: May 24, 2019 at 7:20 am


Visibility: N/A

Pressure: 30.04 "Hg

Humidity: 77%

Dew Point: 46 °F

Location of Milton KeynesLocation

Past Weather in Milton Keynes — Graph

°F

Milton Keynes Temperature Yesterday

Maximum temperature yesterday: 72 °F (at 2:50 pm)
Minimum temperature yesterday: 45 °F (at 4:50 am)
Average temperature yesterday: 61 °F

High & Low Weather Summary for the Past Weeks

 TemperatureHumidityPressure
High72 °F (May 23, 2:50 pm)100% (May 9, 6:50 am)30.72 "Hg (May 9, 6:50 am)
Low37 °F (May 12, 5:20 am)31% (May 23, 7:20 pm)29.33 "Hg (May 9, 6:20 am)
Average53 °F72%30.08 "Hg
* Reported May 9 6:20 am — May 24 6:20 am, Milton Keynes. Weather by CustomWeather, © 2019

Note: Actual official high and low records may vary slightly from our data, if they occured in-between our weather recording intervals... More about our weather records

Advertising

Milton Keynes Weather History for the Previous 24 Hours

Scroll right to see more
 ConditionsComfort  
Time TempWeatherWind HumidityBarometerVisibility
6:20 am
Fri, May 24
52 °FCool.9 mph82%30.04 "HgN/A
5:50 am50 °FCool.9 mph82%30.01 "HgN/A
5:20 am50 °FCool.10 mph82%30.01 "HgN/A
4:50 am50 °FCool.12 mph82%30.01 "HgN/A
4:20 am52 °FCool.9 mph77%30.01 "HgN/A
3:50 am50 °FCool.8 mph76%30.01 "HgN/A
3:20 am52 °FCool.8 mph72%30.01 "HgN/A
2:50 am52 °FCool.8 mph72%30.01 "HgN/A
2:20 am52 °FCool.8 mph72%30.01 "HgN/A
1:50 am54 °FCool.8 mph67%29.98 "HgN/A
1:20 am55 °FCool.10 mph63%29.98 "HgN/A
12:50 am57 °FCool.12 mph63%29.98 "HgN/A
12:20 am57 °FCool.8 mph63%29.98 "HgN/A
11:50 pm
Thu, May 23
59 °FRefreshingly cool.6 mph55%29.98 "HgN/A
11:20 pm61 °FRefreshingly cool.2 mph52%29.98 "HgN/A
10:50 pm61 °FRefreshingly cool.3 mph55%29.98 "HgN/A
10:20 pm61 °FRefreshingly cool.6 mph55%29.98 "HgN/A
9:50 pm63 °FMild.7 mph52%29.98 "HgN/A
9:20 pm64 °FMild.7 mph49%29.98 "HgN/A
8:50 pm64 °FMild.8 mph49%29.98 "HgN/A
8:20 pm66 °FMild.8 mph37%29.95 "HgN/A
7:50 pm68 °FMild.10 mph35%29.95 "HgN/A
7:20 pm70 °FMild.10 mph31%29.95 "HgN/A
6:50 pm68 °FMild.10 mph35%29.95 "HgN/A
6:20 pm70 °FMild.9 mph35%29.95 "HgN/A
5:50 pm72 °FMild.8 mph36%29.95 "HgN/A
5:20 pm72 °FMild.8 mph38%29.95 "HgN/A
4:50 pm70 °FMild.9 mph38%29.95 "HgN/A
4:20 pm72 °FMild.7 mph36%29.98 "HgN/A
3:50 pm72 °FMild.13 mph36%29.98 "HgN/A
3:20 pm72 °FMild.7 mph36%29.98 "HgN/A
2:50 pm72 °FMild.8 mph36%29.98 "HgN/A
2:20 pm70 °FMild.8 mph43%29.98 "HgN/A
1:50 pm70 °FMild.10 mph40%30.01 "HgN/A
12:50 pm70 °FMild.8 mph40%30.01 "HgN/A
12:20 pm68 °FPassing clouds.9 mph43%30.01 "HgN/A
11:50 am68 °FMild.6 mph43%30.01 "HgN/A
11:20 am66 °FMild.7 mph46%30.04 "HgN/A
10:50 am64 °FMild.7 mph49%30.04 "HgN/A
10:20 am64 °FPassing clouds.8 mph52%30.04 "HgN/A
9:50 am63 °FMild.5 mph59%30.04 "HgN/A
9:20 am61 °FRefreshingly cool.3 mph59%30.04 "HgN/A
8:50 am59 °FCool.3 mph63%30.04 "HgN/A
8:20 am59 °FCool.3 mph63%30.04 "HgN/A
Weather by CustomWeather, © 2019

See weather overview